Total_Precipitation_Accumulation
0.24 0.24 0.26 0.24 0.24 0.25 0.30 0.43 0.60 0.47 0.17 0.12 0.19 0.20 0.21 0.24 0.29 0.32 0.30 0.32 0.38 0.42 0.45 0.54 0.64 0.73 0.85 1.11 1.62 2.29 2.82 3.17 3.10 2.76 2.45 2.37 2.63 2.99
0.31 0.31 0.31 0.30 0.30 0.29 0.30 0.33 0.45 0.61 0.42 0.13 0.17 0.23 0.27 0.27 0.31 0.32 0.31 0.34 0.36 0.41 0.44 0.48 0.56 0.66 0.78 0.93 1.12 1.56 2.18 2.67 3.02 3.15 3.05 2.87 2.84 3.06
0.36 0.38 0.40 0.40 0.40 0.37 0.37 0.37 0.40 0.54 0.56 0.19 0.11 0.18 0.29 0.33 0.33 0.30 0.29 0.28 0.26 0.32 0.41 0.47 0.53 0.60 0.67 0.79 0.94 1.17 1.63 2.13 2.55 3.01 3.31 3.30 3.14 3.08
0.41 0.44 0.46 0.46 0.48 0.47 0.48 0.47 0.45 0.49 0.59 0.40 0.17 0.17 0.25 0.33 0.38 0.37 0.29 0.26 0.24 0.26 0.36 0.47 0.54 0.60 0.64 0.70 0.79 0.96 1.24 1.70 2.07 2.38 2.81 3.06 3.10 3.22
0.38 0.44 0.49 0.54 0.58 0.56 0.56 0.55 0.50 0.45 0.48 0.49 0.30 0.21 0.24 0.31 0.36 0.39 0.36 0.33 0.28 0.28 0.32 0.42 0.52 0.58 0.64 0.69 0.74 0.81 0.90 1.14 1.56 2.03 2.46 2.82 2.90 2.91
0.38 0.42 0.48 0.57 0.64 0.70 0.75 0.67 0.59 0.61 0.59 0.57 0.44 0.33 0.30 0.32 0.43 0.47 0.45 0.42 0.41 0.35 0.33 0.35 0.44 0.54 0.57 0.58 0.60 0.67 0.77 0.97 1.30 1.73 2.07 2.45 2.67 2.67
0.42 0.44 0.48 0.60 0.78 0.95 1.06 1.00 0.94 0.95 0.87 0.83 0.70 0.53 0.44 0.47 0.54 0.54 0.57 0.51 0.50 0.49 0.44 0.35 0.35 0.36 0.40 0.47 0.53 0.58 0.69 0.81 0.97 1.28 1.69 2.04 2.37 2.60
0.48 0.44 0.42 0.49 0.57 0.72 0.93 1.00 1.05 1.12 1.14 1.10 1.01 0.86 0.62 0.55 0.60 0.73 0.83 0.82 0.71 0.51 0.46 0.42 0.41 0.43 0.39 0.40 0.49 0.54 0.59 0.69 0.83 1.03 1.29 1.59 1.90 2.29
0.40 0.36 0.35 0.35 0.38 0.38 0.48 0.55 0.64 0.78 0.98 1.13 1.22 1.01 0.78 0.69 0.81 0.98 1.02 1.00 0.81 0.64 0.67 0.69 0.54 0.50 0.45 0.49 0.57 0.55 0.60 0.70 0.78 0.88 1.07 1.31 1.55 1.85
0.31 0.34 0.36 0.34 0.33 0.39 0.46 0.47 0.44 0.48 0.67 0.90 1.05 0.96 0.88 0.87 1.01 1.24 1.38 1.44 1.16 0.87 0.85 1.01 0.75 0.62 0.54 0.52 0.59 0.59 0.59 0.64 0.72 0.81 0.93 1.07 1.28 1.54
0.28 0.38 0.43 0.40 0.39 0.51 0.64 0.62 0.46 0.38 0.44 0.72 0.98 1.02 1.06 1.24 1.43 1.75 2.00 2.06 1.79 1.26 1.05 1.16 1.00 0.80 0.70 0.62 0.62 0.67 0.66 0.65 0.68 0.77 0.88 0.98 1.10 1.34
0.28 0.38 0.58 0.57 0.54 0.58 0.66 0.67 0.61 0.41 0.37 0.42 0.51 0.62 0.69 0.76 1.04 1.41 1.63 1.80 1.79 1.60 1.23 1.19 1.17 1.10 1.10 0.80 0.63 0.57 0.60 0.69 0.73 0.77 0.86 0.95 1.07 1.13
0.37 0.44 0.56 0.55 0.55 0.56 0.62 0.63 0.62 0.58 0.56 0.55 0.49 0.44 0.47 0.58 0.73 1.00 1.23 1.43 1.60 1.54 1.24 1.30 1.40 1.28 1.22 0.98 0.72 0.62 0.54 0.53 0.57 0.69 0.82 0.95 1.08 1.17
0.42 0.37 0.44 0.47 0.52 0.55 0.53 0.54 0.57 0.62 0.60 0.51 0.42 0.35 0.35 0.43 0.54 0.72 0.96 1.11 1.21 1.26 1.15 1.28 1.52 1.36 1.26 1.03 0.79 0.74 0.67 0.61 0.54 0.55 0.63 0.89 1.07 1.19
0.44 0.57 0.51 0.44 0.41 0.35 0.31 0.37 0.40 0.41 0.46 0.43 0.34 0.25 0.24 0.29 0.38 0.52 0.69 0.87 0.99 1.03 1.07 1.12 1.26 1.30 1.36 1.21 0.82 0.71 0.78 0.78 0.68 0.61 0.63 0.71 0.83 0.97
0.36 0.43 0.42 0.32 0.24 0.18 0.16 0.18 0.21 0.28 0.36 0.39 0.30 0.22 0.19 0.24 0.32 0.42 0.59 0.75 0.94 0.97 0.97 1.04 1.15 1.36 1.49 1.21 0.98 0.82 0.77 0.89 0.85 0.73 0.67 0.68 0.72 0.77
0.57 0.54 0.43 0.31 0.26 0.21 0.16 0.13 0.15 0.21 0.28 0.29 0.28 0.26 0.24 0.25 0.27 0.34 0.53 0.71 0.89 0.91 0.95 1.08 1.23 1.37 1.50 1.47 1.36 1.05 0.87 0.85 0.88 0.87 0.79 0.79 0.82 0.81
0.60 0.57 0.38 0.28 0.25 0.22 0.20 0.17 0.15 0.16 0.18 0.23 0.27 0.27 0.28 0.29 0.29 0.32 0.48 0.66 0.76 0.78 0.86 1.00 1.27 1.60 1.80 1.80 1.53 1.26 1.03 0.95 1.01 1.05 0.95 0.89 0.89 0.83
0.43 0.34 0.24 0.21 0.19 0.18 0.18 0.18 0.16 0.12 0.16 0.22 0.26 0.27 0.30 0.34 0.35 0.38 0.45 0.57 0.67 0.72 0.80 0.93 1.20 1.58 1.75 1.68 1.61 1.38 1.16 1.01 1.09 1.25 1.18 0.94 0.83 0.77
0.22 0.22 0.20 0.18 0.18 0.19 0.18 0.18 0.17 0.16 0.18 0.22 0.24 0.25 0.31 0.40 0.42 0.40 0.44 0.57 0.67 0.74 0.83 0.94 1.15 1.37 1.52 1.34 1.32 1.40 1.31 1.16 1.14 1.29 1.27 1.06 0.95 1.00
0.17 0.17 0.18 0.20 0.21 0.21 0.19 0.19 0.20 0.20 0.18 0.21 0.23 0.24 0.29 0.40 0.42 0.37 0.41 0.52 0.73 0.84 0.87 0.89 1.03 1.23 1.44 1.52 1.51 1.45 1.45 1.42 1.27 1.24 1.21 1.15 1.11 1.12
0.20 0.21 0.19 0.20 0.22 0.23 0.23 0.22 0.22 0.20 0.18 0.21 0.23 0.24 0.29 0.38 0.42 0.39 0.45 0.56 0.66 0.74 0.79 0.84 0.97 1.29 1.67 1.78 1.62 1.44 1.46 1.52 1.60 1.53 1.38 1.16 1.08 1.04
0.27 0.26 0.23 0.21 0.21 0.24 0.26 0.24 0.23 0.20 0.18 0.22 0.25 0.26 0.30 0.38 0.39 0.43 0.48 0.54 0.63 0.68 0.74 0.88 1.06 1.33 1.58 1.59 1.56 1.48 1.37 1.37 1.46 1.57 1.73 1.51 1.11 0.87